EW9774 Weather Reports


Display with metric or nautical units.
time (UTC)temp
F
wind
direction
speed
MPH
gust
MPH
rain 1hr
in
rain 24hr
in
rain mn
in
humidity
%
barometer
mb
20260504060145 61 189 4.0 8.0 0.00 0.00 0.00 60 1010.5
20260504044612 65 188 2.0 4.0 0.00 0.00 0.00 52 1010.1
20260504041530 65 181 4.0 7.0 0.00 0.00 0.00 55 1009.5
20260504040036 65 185 3.0 9.0 0.00 0.00 0.00 58 1009.4
20260504034531 66 194 1.0 4.0 0.00 0.00 0.00 55 1009.1
20260504033031 66 180 3.0 6.0 0.00 0.00 0.00 53 1009.0
20260504031532 68 180 3.0 4.0 0.00 0.00 0.00 52 1008.9
20260504030030 72 192 1.0 4.0 0.00 0.00 0.00 50 1008.8
20260504024541 75 181 1.0 3.0 0.00 0.00 0.00 43 1008.8
20260504023031 77 85 2.0 5.0 0.00 0.00 0.00 39 1008.8
20260504021647 79 82 1.0 4.0 0.00 0.00 0.00 38 1009.0
20260504020144 80 62 1.0 3.0 0.00 0.00 0.00 36 1009.1
20260504014529 81 66 1.0 3.0 0.00 0.00 0.00 36 1009.2
20260504011531 83 62 2.0 5.0 0.00 0.00 0.00 33 1009.5
20260504010029 83 43 2.0 5.0 0.00 0.00 0.00 31 1009.6
20260504004607 84 76 1.0 5.0 0.00 0.00 0.00 29 1009.7
20260504003057 84 89 1.0 4.0 0.00 0.00 0.00 29 1009.9
20260504001645 85 75 2.0 7.0 0.00 0.00 0.00 28 1010.0
20260504000030 85 75 2.0 6.0 0.00 0.00 0.00 27 1010.1
20260503234534 85 74 2.0 7.0 0.00 0.00 0.00 26 1010.3
20260503233031 85 117 3.0 9.0 0.00 0.00 0.00 25 1010.5
20260503231540 86 83 4.0 8.0 0.00 0.00 0.00 25 1011.0
20260503224530 86 86 2.0 9.0 0.00 0.00 0.00 25 1011.3
20260503223034 86 86 4.0 10.0 0.00 0.00 0.00 26 1011.6
20260503221607 87 131 2.0 11.0 0.00 0.00 0.00 26 1011.8
20260503214529 86 108 5.0 11.0 0.00 0.00 0.00 25 1012.2
20260503213041 86 100 5.0 12.0 0.00 0.00 0.00 26 1012.4
20260503211531 86 100 5.0 11.0 0.00 0.00 0.00 28 1012.6
20260503210029 85 101 5.0 10.0 0.00 0.00 0.00 29 1012.8
20260503204534 85 71 6.0 14.0 0.00 0.00 0.00 30 1013.0
20260503203057 85 95 5.0 11.0 0.00 0.00 0.00 30 1013.1
20260503201531 84 74 2.0 6.0 0.00 0.00 0.00 35 1013.3
20260503200033 83 26 3.0 7.0 0.00 0.00 0.00 36 1013.4
20260503194531 83 40 2.0 6.0 0.00 0.00 0.00 38 1013.7
20260503193037 82 35 3.0 6.0 0.00 0.00 0.00 40 1013.8
20260503191529 81 36 3.0 5.0 0.00 0.00 0.00 42 1014.1
20260503190031 80 42 2.0 7.0 0.00 0.00 0.00 46 1014.2
20260503184529 79 8 1.0 5.0 0.00 0.00 0.00 47 1014.3
20260503183028 79 65 1.0 5.0 0.00 0.00 0.00 47 1014.5
20260503181529 77 53 1.0 4.0 0.00 0.00 0.00 46 1014.6
20260503173031 74 71 1.0 3.0 0.00 0.00 0.00 50 1015.1
20260503171530 73 38 1.0 4.0 0.00 0.00 0.00 50 1015.2
20260503140108 49 180 1.0 3.0 0.00 0.00 0.00 94 1015.7
20260503081606 52 179 1.0 4.0 0.00 0.00 0.00 88 1015.2
20260503071645 54 201 1.0 2.0 0.00 0.00 0.00 85 1015.2